M I D A S
Marine Information and Data Acquisition System
Tripno 1205 of the Zeeleeuw from 2007-01-24 08:53:16 to 2007-01-24 15:26:34
Back to CruiseResearch ActivitiesStationsMapUnderway DataData graphs

EquipmentUnitsComments
TimeDGPSUTC
LatitudeDGPSDM.mWGS84
LongitudeDGPSDM.mWGS84
SpeedMeteo Stationm/sRelative wind speed
DirectionMeteo StationdegRelative wind direction
TemperatureMeteo Stationdeg CelciusAir temperature
PressureMeteo StationPaAtmospheric pressure
HumidityMeteo Station%Relative humidity
Missing or incorrect values are displayed as -999
Metereological data collected by the RV Zeeleeuw from 2007-01-24 08:08:57 to 2007-01-24 15:40:08
Time Latitude Longitude Speed Direction Temperature Pressure Humidity
2007-01-24 08:10 51°13.598 2°56.09 -999 -999 -999 -999 -999
2007-01-24 08:11 51°13.598 2°56.086 -999 -999 -999 -999 -999
2007-01-24 08:12 51°13.599 2°56.096 -999 -999 -999 -999 -999
2007-01-24 08:13 51°13.598 2°56.092 -999 -999 -999 -999 -999
2007-01-24 08:14 51°13.598 2°56.093 -999 -999 -999 -999 -999
2007-01-24 08:15 51°13.597 2°56.093 -999 -999 -999 -999 -999
2007-01-24 08:16 51°13.598 2°56.094 -999 -999 -999 -999 -999
2007-01-24 08:17 51°13.596 2°56.097 -999 -999 -999 -999 -999
2007-01-24 08:18 51°13.597 2°56.097 -999 -999 -999 -999 -999
2007-01-24 08:19 51°13.599 2°56.093 -999 -999 -999 -999 -999
2007-01-24 08:20 51°13.6 2°56.092 -999 -999 -999 -999 -999
2007-01-24 08:21 51°13.6 2°56.094 -999 -999 -999 -999 -999
2007-01-24 08:22 51°13.6 2°56.091 -999 -999 -999 -999 -999
2007-01-24 08:23 51°13.601 2°56.091 -999 -999 -999 -999 -999
2007-01-24 08:24 51°13.599 2°56.096 -999 -999 -999 -999 -999
2007-01-24 08:25 51°13.601 2°56.092 -999 -999 -999 -999 -999
2007-01-24 08:26 51°13.6 2°56.092 -999 -999 -999 -999 -999
2007-01-24 08:27 51°13.6 2°56.093 -999 -999 -999 -999 -999
2007-01-24 08:28 51°13.6 2°56.093 -999 -999 -999 -999 -999
2007-01-24 08:29 51°13.599 2°56.093 -999 -999 -999 -999 -999
2007-01-24 08:30 51°13.599 2°56.094 -999 -999 -999 -999 -999
2007-01-24 08:31 51°13.599 2°56.094 -999 -999 -999 -999 -999
2007-01-24 08:32 51°13.6 2°56.093 -999 -999 -999 -999 -999
2007-01-24 08:33 51°13.6 2°56.092 -999 -999 -999 -999 -999
2007-01-24 08:34 51°13.6 2°56.091 -999 -999 -999 -999 -999
2007-01-24 08:35 51°13.599 2°56.092 -999 -999 -999 -999 -999
2007-01-24 08:36 51°13.598 2°56.094 -999 -999 -999 -999 -999
2007-01-24 08:37 51°13.597 2°56.095 -999 -999 -999 -999 -999
2007-01-24 08:38 51°13.598 2°56.094 -999 -999 -999 -999 -999
2007-01-24 08:39 51°13.598 2°56.093 -999 -999 -999 -999 -999
2007-01-24 08:40 51°13.598 2°56.093 -999 -999 -999 -999 -999
2007-01-24 08:41 51°13.598 2°56.093 -999 -999 -999 -999 -999
2007-01-24 08:42 51°13.598 2°56.091 -999 -999 -999 -999 -999
2007-01-24 08:43 51°13.6 2°56.091 -999 -999 -999 -999 -999
2007-01-24 08:44 51°13.599 2°56.09 -999 -999 -999 -999 -999
2007-01-24 08:45 51°13.601 2°56.091 -999 -999 -999 -999 -999
2007-01-24 08:46 51°13.599 2°56.091 -999 -999 -999 -999 -999
2007-01-24 08:47 51°13.6 2°56.091 -999 -999 -999 -999 -999
2007-01-24 08:48 51°13.6 2°56.092 -999 -999 -999 -999 -999
2007-01-24 08:49 51°13.6 2°56.093 -999 -999 -999 -999 -999
2007-01-24 08:50 51°13.599 2°56.092 -999 -999 -999 -999 -999
2007-01-24 08:51 51°13.599 2°56.093 -999 -999 -999 -999 -999
2007-01-24 08:52 51°13.599 2°56.093 -999 -999 -999 -999 -999
2007-01-24 08:53 51°13.598 2°56.092 -999 -999 -999 -999 -999
2007-01-24 08:54 51°13.598 2°56.094 -999 -999 -999 -999 -999
2007-01-24 08:55 51°13.598 2°56.094 -999 -999 -999 -999 -999
2007-01-24 08:56 51°13.597 2°56.092 -999 -999 -999 -999 -999
2007-01-24 08:57 51°13.611 2°56.045 -999 -999 -999 -999 -999
2007-01-24 08:58 51°13.644 2°55.942 -999 -999 -999 -999 -999
2007-01-24 08:59 51°13.679 2°55.838 -999 -999 -999 -999 -999
2007-01-24 09:00 51°13.699 2°55.756 -999 -999 -999 -999 -999
2007-01-24 09:01 51°13.708 2°55.746 -999 -999 -999 -999 -999
2007-01-24 09:02 51°13.707 2°55.734 -999 -999 -999 -999 -999
2007-01-24 09:03 51°13.733 2°55.731 -999 -999 -999 -999 -999
2007-01-24 09:04 51°13.764 2°55.703 -999 -999 -999 -999 -999
2007-01-24 09:05 51°13.794 2°55.677 -999 -999 -999 -999 -999
2007-01-24 09:06 51°13.822 2°55.65 -999 -999 -999 -999 -999
2007-01-24 09:07 51°13.848 2°55.628 -999 -999 -999 -999 -999
2007-01-24 09:08 51°13.861 2°55.619 -999 -999 -999 -999 -999
2007-01-24 09:09 51°13.871 2°55.613 -999 -999 -999 -999 -999
2007-01-24 09:10 51°13.884 2°55.605 -999 -999 -999 -999 -999
2007-01-24 09:11 51°13.888 2°55.604 -999 -999 -999 -999 -999
2007-01-24 09:12 51°13.899 2°55.598 -999 -999 -999 -999 -999
2007-01-24 09:13 51°13.925 2°55.579 -999 -999 -999 -999 -999
2007-01-24 09:14 51°13.945 2°55.563 -999 -999 -999 -999 -999
2007-01-24 09:15 51°13.963 2°55.55 -999 -999 -999 -999 -999
2007-01-24 09:16 51°13.994 2°55.528 -999 -999 -999 -999 -999
2007-01-24 09:17 51°14.091 2°55.451 -999 -999 -999 -999 -999
2007-01-24 09:18 51°14.23 2°55.316 -999 -999 -999 -999 -999
2007-01-24 09:19 51°14.348 2°55.101 -999 -999 -999 -999 -999
2007-01-24 09:20 51°14.444 2°54.829 -999 -999 -999 -999 -999
2007-01-24 09:21 51°14.429 2°54.495 -999 -999 -999 -999 -999
2007-01-24 09:22 51°14.334 2°54.185 -999 -999 -999 -999 -999
2007-01-24 09:23 51°14.222 2°53.878 -999 -999 -999 -999 -999
2007-01-24 09:24 51°14.11 2°53.573 -999 -999 -999 -999 -999
2007-01-24 09:25 51°13.995 2°53.27 -999 -999 -999 -999 -999
2007-01-24 09:26 51°13.881 2°52.965 -999 -999 -999 -999 -999
2007-01-24 09:27 51°13.769 2°52.66 -999 -999 -999 -999 -999
2007-01-24 09:28 51°13.653 2°52.348 -999 -999 -999 -999 -999
2007-01-24 09:29 51°13.532 2°52.014 -999 -999 -999 -999 -999
2007-01-24 09:30 51°13.414 2°51.671 -999 -999 -999 -999 -999
2007-01-24 09:31 51°13.293 2°51.328 -999 -999 -999 -999 -999
2007-01-24 09:32 51°13.174 2°50.985 -999 -999 -999 -999 -999
2007-01-24 09:33 51°13.055 2°50.64 -999 -999 -999 -999 -999
2007-01-24 09:34 51°12.935 2°50.296 -999 -999 -999 -999 -999
2007-01-24 09:35 51°12.811 2°49.958 -999 -999 -999 -999 -999
2007-01-24 09:36 51°12.69 2°49.624 -999 -999 -999 -999 -999
2007-01-24 09:37 51°12.564 2°49.279 -999 -999 -999 -999 -999
2007-01-24 09:38 51°12.439 2°48.941 -999 -999 -999 -999 -999
2007-01-24 09:39 51°12.315 2°48.602 -999 -999 -999 -999 -999
2007-01-24 09:40 51°12.191 2°48.262 -999 -999 -999 -999 -999
2007-01-24 09:41 51°12.065 2°47.925 -999 -999 -999 -999 -999
2007-01-24 09:42 51°11.941 2°47.588 -999 -999 -999 -999 -999
2007-01-24 09:43 51°11.817 2°47.25 -999 -999 -999 -999 -999
2007-01-24 09:44 51°11.698 2°46.909 -999 -999 -999 -999 -999
2007-01-24 09:45 51°11.582 2°46.568 -999 -999 -999 -999 -999
2007-01-24 09:46 51°11.526 2°46.189 -999 -999 -999 -999 -999
2007-01-24 09:47 51°11.463 2°45.809 -999 -999 -999 -999 -999
2007-01-24 09:48 51°11.396 2°45.429 -999 -999 -999 -999 -999
2007-01-24 09:49 51°11.331 2°45.05 -999 -999 -999 -999 -999
2007-01-24 09:50 51°11.268 2°44.671 -999 -999 -999 -999 -999
2007-01-24 09:51 51°11.203 2°44.293 -999 -999 -999 -999 -999
2007-01-24 09:52 51°11.141 2°43.922 -999 -999 -999 -999 -999
2007-01-24 09:53 51°11.075 2°43.537 -999 -999 -999 -999 -999
2007-01-24 09:54 51°11.01 2°43.161 -999 -999 -999 -999 -999
2007-01-24 09:55 51°10.945 2°42.783 -999 -999 -999 -999 -999
2007-01-24 09:56 51°10.882 2°42.405 -999 -999 -999 -999 -999
2007-01-24 09:57 51°10.825 2°42.026 -999 -999 -999 -999 -999
2007-01-24 09:58 51°10.769 2°41.646 -999 -999 -999 -999 -999
2007-01-24 09:59 51°10.713 2°41.266 -999 -999 -999 -999 -999
2007-01-24 10:00 51°10.658 2°40.884 -999 -999 -999 -999 -999
2007-01-24 10:01 51°10.602 2°40.504 -999 -999 -999 -999 -999
2007-01-24 10:02 51°10.548 2°40.131 -999 -999 -999 -999 -999
2007-01-24 10:03 51°10.501 2°39.883 -999 -999 -999 -999 -999
2007-01-24 10:04 51°10.464 2°39.803 -999 -999 -999 -999 -999
2007-01-24 10:05 51°10.466 2°39.772 -999 -999 -999 -999 -999
2007-01-24 10:06 51°10.467 2°39.741 -999 -999 -999 -999 -999
2007-01-24 10:07 51°10.464 2°39.714 -999 -999 -999 -999 -999
2007-01-24 10:08 51°10.454 2°39.686 -999 -999 -999 -999 -999
2007-01-24 10:09 51°10.414 2°39.649 -999 -999 -999 -999 -999
2007-01-24 10:10 51°10.356 2°39.56 -999 -999 -999 -999 -999
2007-01-24 10:11 51°10.312 2°39.444 -999 -999 -999 -999 -999
2007-01-24 10:12 51°10.27 2°39.328 -999 -999 -999 -999 -999
2007-01-24 10:13 51°10.24 2°39.222 -999 -999 -999 -999 -999
2007-01-24 10:14 51°10.211 2°39.132 -999 -999 -999 -999 -999
2007-01-24 10:15 51°10.191 2°39.057 -999 -999 -999 -999 -999
2007-01-24 10:16 51°10.175 2°38.989 -999 -999 -999 -999 -999
2007-01-24 10:17 51°10.162 2°38.927 -999 -999 -999 -999 -999
2007-01-24 10:18 51°10.149 2°38.867 -999 -999 -999 -999 -999
2007-01-24 10:19 51°10.133 2°38.802 -999 -999 -999 -999 -999
2007-01-24 10:20 51°10.11 2°38.727 -999 -999 -999 -999 -999
2007-01-24 10:21 51°10.088 2°38.647 -999 -999 -999 -999 -999
2007-01-24 10:22 51°10.065 2°38.568 -999 -999 -999 -999 -999
2007-01-24 10:23 51°10.043 2°38.489 -999 -999 -999 -999 -999
2007-01-24 10:24 51°10.022 2°38.41 -999 -999 -999 -999 -999
2007-01-24 10:25 51°10 2°38.332 -999 -999 -999 -999 -999
2007-01-24 10:26 51°9.978 2°38.253 -999 -999 -999 -999 -999
2007-01-24 10:27 51°9.957 2°38.174 -999 -999 -999 -999 -999
2007-01-24 10:28 51°9.937 2°38.094 -999 -999 -999 -999 -999
2007-01-24 10:29 51°9.917 2°38.015 -999 -999 -999 -999 -999
2007-01-24 10:30 51°9.897 2°37.935 -999 -999 -999 -999 -999
2007-01-24 10:31 51°9.877 2°37.854 -999 -999 -999 -999 -999
2007-01-24 10:32 51°9.857 2°37.774 -999 -999 -999 -999 -999
2007-01-24 10:33 51°9.836 2°37.697 -999 -999 -999 -999 -999
2007-01-24 10:34 51°9.814 2°37.62 -999 -999 -999 -999 -999
2007-01-24 10:35 51°9.793 2°37.541 -999 -999 -999 -999 -999
2007-01-24 10:36 51°9.772 2°37.463 -999 -999 -999 -999 -999
2007-01-24 10:37 51°9.75 2°37.384 -999 -999 -999 -999 -999
2007-01-24 10:38 51°9.73 2°37.305 -999 -999 -999 -999 -999
2007-01-24 10:39 51°9.708 2°37.227 -999 -999 -999 -999 -999
2007-01-24 10:40 51°9.686 2°37.149 -999 -999 -999 -999 -999
2007-01-24 10:41 51°9.664 2°37.072 -999 -999 -999 -999 -999
2007-01-24 10:42 51°9.643 2°36.994 -999 -999 -999 -999 -999
2007-01-24 10:43 51°9.622 2°36.916 -999 -999 -999 -999 -999
2007-01-24 10:44 51°9.603 2°36.837 -999 -999 -999 -999 -999
2007-01-24 10:45 51°9.586 2°36.761 -999 -999 -999 -999 -999
2007-01-24 10:46 51°9.579 2°36.687 -999 -999 -999 -999 -999
2007-01-24 10:47 51°9.583 2°36.622 -999 -999 -999 -999 -999
2007-01-24 10:48 51°9.587 2°36.569 -999 -999 -999 -999 -999
2007-01-24 10:49 51°9.589 2°36.523 -999 -999 -999 -999 -999
2007-01-24 10:50 51°9.589 2°36.479 -999 -999 -999 -999 -999
2007-01-24 10:51 51°9.602 2°36.402 -999 -999 -999 -999 -999
2007-01-24 10:52 51°9.642 2°36.246 -999 -999 -999 -999 -999
2007-01-24 10:53 51°9.703 2°36.038 -999 -999 -999 -999 -999
2007-01-24 10:54 51°9.786 2°35.772 -999 -999 -999 -999 -999
2007-01-24 10:55 51°9.88 2°35.484 -999 -999 -999 -999 -999
2007-01-24 10:56 51°10.034 2°35.36 -999 -999 -999 -999 -999
2007-01-24 10:57 51°10.201 2°35.518 -999 -999 -999 -999 -999
2007-01-24 10:58 51°10.383 2°35.672 -999 -999 -999 -999 -999
2007-01-24 10:59 51°10.559 2°35.841 -999 -999 -999 -999 -999
2007-01-24 11:00 51°10.736 2°36.015 -999 -999 -999 -999 -999
2007-01-24 11:01 51°10.911 2°36.199 -999 -999 -999 -999 -999
2007-01-24 11:02 51°11.087 2°36.383 -999 -999 -999 -999 -999
2007-01-24 11:03 51°11.263 2°36.565 -999 -999 -999 -999 -999
2007-01-24 11:04 51°11.44 2°36.747 -999 -999 -999 -999 -999
2007-01-24 11:05 51°11.615 2°36.931 -999 -999 -999 -999 -999
2007-01-24 11:06 51°11.79 2°37.114 -999 -999 -999 -999 -999
2007-01-24 11:07 51°11.964 2°37.297 -999 -999 -999 -999 -999
2007-01-24 11:08 51°12.139 2°37.48 -999 -999 -999 -999 -999
2007-01-24 11:09 51°12.313 2°37.663 -999 -999 -999 -999 -999
2007-01-24 11:10 51°12.487 2°37.845 -999 -999 -999 -999 -999
2007-01-24 11:11 51°12.66 2°38.028 -999 -999 -999 -999 -999
2007-01-24 11:12 51°12.834 2°38.209 -999 -999 -999 -999 -999
2007-01-24 11:13 51°13.01 2°38.39 -999 -999 -999 -999 -999
2007-01-24 11:14 51°13.183 2°38.572 -999 -999 -999 -999 -999
2007-01-24 11:15 51°13.365 2°38.734 -999 -999 -999 -999 -999
2007-01-24 11:16 51°13.561 2°38.846 -999 -999 -999 -999 -999
2007-01-24 11:17 51°13.771 2°38.898 -999 -999 -999 -999 -999
2007-01-24 11:18 51°13.984 2°38.879 -999 -999 -999 -999 -999
2007-01-24 11:19 51°14.16 2°38.68 -999 -999 -999 -999 -999
2007-01-24 11:20 51°14.2 2°38.315 -999 -999 -999 -999 -999
2007-01-24 11:21 51°14.117 2°37.948 -999 -999 -999 -999 -999
2007-01-24 11:22 51°14.008 2°37.589 -999 -999 -999 -999 -999
2007-01-24 11:23 51°13.898 2°37.228 -999 -999 -999 -999 -999
2007-01-24 11:24 51°13.789 2°36.866 -999 -999 -999 -999 -999
2007-01-24 11:25 51°13.681 2°36.504 -999 -999 -999 -999 -999
2007-01-24 11:26 51°13.573 2°36.142 -999 -999 -999 -999 -999
2007-01-24 11:27 51°13.466 2°35.777 -999 -999 -999 -999 -999
2007-01-24 11:28 51°13.355 2°35.414 -999 -999 -999 -999 -999
2007-01-24 11:29 51°13.245 2°35.051 -999 -999 -999 -999 -999
2007-01-24 11:30 51°13.134 2°34.692 -999 -999 -999 -999 -999
2007-01-24 11:31 51°13.025 2°34.33 -999 -999 -999 -999 -999
2007-01-24 11:32 51°12.914 2°33.973 -999 -999 -999 -999 -999
2007-01-24 11:33 51°12.803 2°33.615 -999 -999 -999 -999 -999
2007-01-24 11:34 51°12.694 2°33.26 -999 -999 -999 -999 -999
2007-01-24 11:35 51°12.584 2°32.912 -999 -999 -999 -999 -999
2007-01-24 11:36 51°12.474 2°32.561 -999 -999 -999 -999 -999
2007-01-24 11:37 51°12.378 2°32.199 -999 -999 -999 -999 -999
2007-01-24 11:38 51°12.285 2°31.831 -999 -999 -999 -999 -999
2007-01-24 11:39 51°12.192 2°31.458 -999 -999 -999 -999 -999
2007-01-24 11:40 51°12.097 2°31.086 -999 -999 -999 -999 -999
2007-01-24 11:41 51°12.001 2°30.712 -999 -999 -999 -999 -999
2007-01-24 11:42 51°11.907 2°30.336 -999 -999 -999 -999 -999
2007-01-24 11:43 51°11.813 2°29.959 -999 -999 -999 -999 -999
2007-01-24 11:44 51°11.721 2°29.581 -999 -999 -999 -999 -999
2007-01-24 11:45 51°11.628 2°29.203 -999 -999 -999 -999 -999
2007-01-24 11:46 51°11.538 2°28.824 -999 -999 -999 -999 -999
2007-01-24 11:47 51°11.459 2°28.438 -999 -999 -999 -999 -999
2007-01-24 11:48 51°11.388 2°28.051 -999 -999 -999 -999 -999
2007-01-24 11:49 51°11.34 2°27.656 -999 -999 -999 -999 -999
2007-01-24 11:50 51°11.295 2°27.268 -999 -999 -999 -999 -999
2007-01-24 11:51 51°11.252 2°26.888 -999 -999 -999 -999 -999
2007-01-24 11:52 51°11.206 2°26.513 -999 -999 -999 -999 -999
2007-01-24 11:53 51°11.16 2°26.141 -999 -999 -999 -999 -999
2007-01-24 11:54 51°11.123 2°25.771 -999 -999 -999 -999 -999
2007-01-24 11:55 51°11.233 2°25.475 -999 -999 -999 -999 -999
2007-01-24 11:56 51°11.438 2°25.448 -999 -999 -999 -999 -999
2007-01-24 11:57 51°11.598 2°25.649 -999 -999 -999 -999 -999
2007-01-24 11:58 51°11.756 2°25.858 -999 -999 -999 -999 -999
2007-01-24 11:59 51°11.916 2°26.066 -999 -999 -999 -999 -999
2007-01-24 12:00 51°12.077 2°26.277 -999 -999 -999 -999 -999
2007-01-24 12:01 51°12.237 2°26.487 -999 -999 -999 -999 -999
2007-01-24 12:02 51°12.4 2°26.696 -999 -999 -999 -999 -999
2007-01-24 12:03 51°12.564 2°26.905 -999 -999 -999 -999 -999
2007-01-24 12:04 51°12.727 2°27.112 -999 -999 -999 -999 -999
2007-01-24 12:05 51°12.888 2°27.321 -999 -999 -999 -999 -999
2007-01-24 12:06 51°13.051 2°27.528 -999 -999 -999 -999 -999
2007-01-24 12:07 51°13.214 2°27.739 -999 -999 -999 -999 -999
2007-01-24 12:08 51°13.376 2°27.951 -999 -999 -999 -999 -999
2007-01-24 12:09 51°13.538 2°28.161 -999 -999 -999 -999 -999
2007-01-24 12:10 51°13.7 2°28.373 -999 -999 -999 -999 -999
2007-01-24 12:11 51°13.859 2°28.584 -999 -999 -999 -999 -999
2007-01-24 12:12 51°14.019 2°28.793 -999 -999 -999 -999 -999
2007-01-24 12:13 51°14.178 2°29.003 -999 -999 -999 -999 -999
2007-01-24 12:14 51°14.339 2°29.213 -999 -999 -999 -999 -999
2007-01-24 12:15 51°14.5 2°29.42 -999 -999 -999 -999 -999
2007-01-24 12:16 51°14.664 2°29.624 -999 -999 -999 -999 -999
2007-01-24 12:17 51°14.829 2°29.829 -999 -999 -999 -999 -999
2007-01-24 12:18 51°14.993 2°30.036 -999 -999 -999 -999 -999
2007-01-24 12:19 51°15.158 2°30.24 -999 -999 -999 -999 -999
2007-01-24 12:20 51°15.323 2°30.443 -999 -999 -999 -999 -999
2007-01-24 12:21 51°15.488 2°30.648 -999 -999 -999 -999 -999
2007-01-24 12:22 51°15.654 2°30.852 -999 -999 -999 -999 -999
2007-01-24 12:23 51°15.821 2°31.057 -999 -999 -999 -999 -999
2007-01-24 12:24 51°15.984 2°31.269 -999 -999 -999 -999 -999
2007-01-24 12:25 51°16.148 2°31.481 -999 -999 -999 -999 -999
2007-01-24 12:26 51°16.312 2°31.692 -999 -999 -999 -999 -999
2007-01-24 12:27 51°16.474 2°31.905 -999 -999 -999 -999 -999
2007-01-24 12:28 51°16.632 2°32.116 -999 -999 -999 -999 -999
2007-01-24 12:29 51°16.791 2°32.329 -999 -999 -999 -999 -999
2007-01-24 12:30 51°16.951 2°32.54 -999 -999 -999 -999 -999
2007-01-24 12:31 51°17.109 2°32.753 -999 -999 -999 -999 -999
2007-01-24 12:32 51°17.268 2°32.965 -999 -999 -999 -999 -999
2007-01-24 12:33 51°17.43 2°33.175 -999 -999 -999 -999 -999
2007-01-24 12:34 51°17.597 2°33.374 -999 -999 -999 -999 -999
2007-01-24 12:35 51°17.762 2°33.571 -999 -999 -999 -999 -999
2007-01-24 12:36 51°17.927 2°33.768 -999 -999 -999 -999 -999
2007-01-24 12:37 51°18.094 2°33.969 -999 -999 -999 -999 -999
2007-01-24 12:38 51°18.255 2°34.173 -999 -999 -999 -999 -999
2007-01-24 12:39 51°18.416 2°34.374 -999 -999 -999 -999 -999
2007-01-24 12:40 51°18.58 2°34.579 -999 -999 -999 -999 -999
2007-01-24 12:41 51°18.741 2°34.787 -999 -999 -999 -999 -999
2007-01-24 12:42 51°18.903 2°34.995 -999 -999 -999 -999 -999
2007-01-24 12:43 51°19.065 2°35.202 -999 -999 -999 -999 -999
2007-01-24 12:44 51°19.227 2°35.407 -999 -999 -999 -999 -999
2007-01-24 12:45 51°19.389 2°35.615 -999 -999 -999 -999 -999
2007-01-24 12:46 51°19.551 2°35.823 -999 -999 -999 -999 -999
2007-01-24 12:47 51°19.713 2°36.031 -999 -999 -999 -999 -999
2007-01-24 12:48 51°19.873 2°36.24 -999 -999 -999 -999 -999
2007-01-24 12:49 51°20.032 2°36.447 -999 -999 -999 -999 -999
2007-01-24 12:50 51°20.196 2°36.654 -999 -999 -999 -999 -999
2007-01-24 12:51 51°20.357 2°36.862 -999 -999 -999 -999 -999
2007-01-24 12:52 51°20.52 2°37.07 -999 -999 -999 -999 -999
2007-01-24 12:53 51°20.681 2°37.28 -999 -999 -999 -999 -999
2007-01-24 12:54 51°20.842 2°37.489 -999 -999 -999 -999 -999
2007-01-24 12:55 51°21.004 2°37.695 -999 -999 -999 -999 -999
2007-01-24 12:56 51°21.198 2°37.775 -999 -999 -999 -999 -999
2007-01-24 12:57 51°21.41 2°37.759 -999 -999 -999 -999 -999
2007-01-24 12:58 51°21.623 2°37.757 -999 -999 -999 -999 -999
2007-01-24 12:59 51°21.834 2°37.774 -999 -999 -999 -999 -999
2007-01-24 13:00 51°22.047 2°37.79 -999 -999 -999 -999 -999
2007-01-24 13:01 51°22.26 2°37.808 -999 -999 -999 -999 -999
2007-01-24 13:02 51°22.471 2°37.826 -999 -999 -999 -999 -999
2007-01-24 13:03 51°22.683 2°37.848 -999 -999 -999 -999 -999
2007-01-24 13:04 51°22.894 2°37.871 -999 -999 -999 -999 -999
2007-01-24 13:05 51°23.102 2°37.91 -999 -999 -999 -999 -999
2007-01-24 13:06 51°23.252 2°38.128 -999 -999 -999 -999 -999
2007-01-24 13:07 51°23.397 2°38.369 -999 -999 -999 -999 -999
2007-01-24 13:08 51°23.54 2°38.613 -999 -999 -999 -999 -999
2007-01-24 13:09 51°23.672 2°38.875 -999 -999 -999 -999 -999
2007-01-24 13:10 51°23.807 2°39.138 -999 -999 -999 -999 -999
2007-01-24 13:11 51°23.945 2°39.395 -999 -999 -999 -999 -999
2007-01-24 13:12 51°24.082 2°39.654 -999 -999 -999 -999 -999
2007-01-24 13:13 51°24.222 2°39.915 -999 -999 -999 -999 -999
2007-01-24 13:14 51°24.36 2°40.172 -999 -999 -999 -999 -999
2007-01-24 13:15 51°24.498 2°40.426 -999 -999 -999 -999 -999
2007-01-24 13:16 51°24.63 2°40.693 -999 -999 -999 -999 -999
2007-01-24 13:17 51°24.757 2°40.962 -999 -999 -999 -999 -999
2007-01-24 13:18 51°24.888 2°41.229 -999 -999 -999 -999 -999
2007-01-24 13:19 51°25.018 2°41.5 -999 -999 -999 -999 -999
2007-01-24 13:20 51°25.149 2°41.768 -999 -999 -999 -999 -999
2007-01-24 13:21 51°25.28 2°42.035 -999 -999 -999 -999 -999
2007-01-24 13:22 51°25.41 2°42.31 -999 -999 -999 -999 -999
2007-01-24 13:23 51°25.542 2°42.581 -999 -999 -999 -999 -999
2007-01-24 13:24 51°25.675 2°42.851 -999 -999 -999 -999 -999
2007-01-24 13:25 51°25.807 2°43.122 -999 -999 -999 -999 -999
2007-01-24 13:26 51°25.938 2°43.393 -999 -999 -999 -999 -999
2007-01-24 13:27 51°26.072 2°43.663 -999 -999 -999 -999 -999
2007-01-24 13:28 51°26.204 2°43.932 -999 -999 -999 -999 -999
2007-01-24 13:29 51°26.337 2°44.2 -999 -999 -999 -999 -999
2007-01-24 13:30 51°26.427 2°44.509 -999 -999 -999 -999 -999
2007-01-24 13:31 51°26.459 2°44.85 -999 -999 -999 -999 -999
2007-01-24 13:32 51°26.507 2°45.187 -999 -999 -999 -999 -999
2007-01-24 13:33 51°26.559 2°45.522 -999 -999 -999 -999 -999
2007-01-24 13:34 51°26.609 2°45.861 -999 -999 -999 -999 -999
2007-01-24 13:35 51°26.657 2°46.2 -999 -999 -999 -999 -999
2007-01-24 13:36 51°26.702 2°46.541 -999 -999 -999 -999 -999
2007-01-24 13:37 51°26.743 2°46.886 -999 -999 -999 -999 -999
2007-01-24 13:38 51°26.782 2°47.234 -999 -999 -999 -999 -999
2007-01-24 13:39 51°26.821 2°47.579 -999 -999 -999 -999 -999
2007-01-24 13:40 51°26.862 2°47.928 -999 -999 -999 -999 -999
2007-01-24 13:41 51°26.902 2°48.274 -999 -999 -999 -999 -999
2007-01-24 13:42 51°26.941 2°48.62 -999 -999 -999 -999 -999
2007-01-24 13:43 51°26.981 2°48.968 -999 -999 -999 -999 -999
2007-01-24 13:44 51°27.02 2°49.316 -999 -999 -999 -999 -999
2007-01-24 13:45 51°27.057 2°49.662 -999 -999 -999 -999 -999
2007-01-24 13:46 51°27.094 2°50.009 -999 -999 -999 -999 -999
2007-01-24 13:47 51°27.133 2°50.355 -999 -999 -999 -999 -999
2007-01-24 13:48 51°27.171 2°50.707 -999 -999 -999 -999 -999
2007-01-24 13:49 51°27.187 2°51.059 -999 -999 -999 -999 -999
2007-01-24 13:50 51°27.003 2°51.227 -999 -999 -999 -999 -999
2007-01-24 13:51 51°26.856 2°50.967 -999 -999 -999 -999 -999
2007-01-24 13:52 51°26.87 2°50.605 -999 -999 -999 -999 -999
2007-01-24 13:53 51°26.933 2°50.252 -999 -999 -999 -999 -999
2007-01-24 13:54 51°27.006 2°49.908 -999 -999 -999 -999 -999
2007-01-24 13:55 51°27.052 2°49.621 -999 -999 -999 -999 -999
2007-01-24 13:56 51°27.04 2°49.452 -999 -999 -999 -999 -999
2007-01-24 13:57 51°27.035 2°49.337 -999 -999 -999 -999 -999
2007-01-24 13:58 51°26.94 2°49.101 -999 -999 -999 -999 -999
2007-01-24 13:59 51°26.786 2°48.815 -999 -999 -999 -999 -999
2007-01-24 14:00 51°26.625 2°48.532 -999 -999 -999 -999 -999
2007-01-24 14:01 51°26.484 2°48.226 -999 -999 -999 -999 -999
2007-01-24 14:02 51°26.377 2°47.894 -999 -999 -999 -999 -999
2007-01-24 14:03 51°26.273 2°47.561 -999 -999 -999 -999 -999
2007-01-24 14:04 51°26.17 2°47.225 -999 -999 -999 -999 -999
2007-01-24 14:05 51°26.068 2°46.893 -999 -999 -999 -999 -999
2007-01-24 14:06 51°25.917 2°46.648 -999 -999 -999 -999 -999
2007-01-24 14:07 51°25.695 2°46.742 -999 -999 -999 -999 -999
2007-01-24 14:08 51°25.46 2°46.8 -999 -999 -999 -999 -999
2007-01-24 14:09 51°25.22 2°46.851 -999 -999 -999 -999 -999
2007-01-24 14:10 51°24.984 2°46.891 -999 -999 -999 -999 -999
2007-01-24 14:11 51°24.749 2°46.931 -999 -999 -999 -999 -999
2007-01-24 14:12 51°24.515 2°46.973 -999 -999 -999 -999 -999
2007-01-24 14:13 51°24.285 2°47.012 -999 -999 -999 -999 -999
2007-01-24 14:14 51°24.051 2°47.049 -999 -999 -999 -999 -999
2007-01-24 14:15 51°23.817 2°47.093 -999 -999 -999 -999 -999
2007-01-24 14:16 51°23.585 2°47.138 -999 -999 -999 -999 -999
2007-01-24 14:17 51°23.354 2°47.186 -999 -999 -999 -999 -999
2007-01-24 14:18 51°23.12 2°47.232 -999 -999 -999 -999 -999
2007-01-24 14:19 51°22.886 2°47.273 -999 -999 -999 -999 -999
2007-01-24 14:20 51°22.654 2°47.319 -999 -999 -999 -999 -999
2007-01-24 14:21 51°22.422 2°47.372 -999 -999 -999 -999 -999
2007-01-24 14:22 51°22.189 2°47.422 -999 -999 -999 -999 -999
2007-01-24 14:23 51°21.959 2°47.471 -999 -999 -999 -999 -999
2007-01-24 14:24 51°21.731 2°47.499 -999 -999 -999 -999 -999
2007-01-24 14:25 51°21.504 2°47.478 -999 -999 -999 -999 -999
2007-01-24 14:26 51°21.279 2°47.46 -999 -999 -999 -999 -999
2007-01-24 14:27 51°21.056 2°47.437 -999 -999 -999 -999 -999
2007-01-24 14:28 51°20.83 2°47.414 -999 -999 -999 -999 -999
2007-01-24 14:29 51°20.611 2°47.362 -999 -999 -999 -999 -999
2007-01-24 14:30 51°20.403 2°47.246 -999 -999 -999 -999 -999
2007-01-24 14:31 51°20.196 2°47.127 -999 -999 -999 -999 -999
2007-01-24 14:32 51°19.99 2°46.999 -999 -999 -999 -999 -999
2007-01-24 14:33 51°19.788 2°46.859 -999 -999 -999 -999 -999
2007-01-24 14:34 51°19.587 2°46.723 -999 -999 -999 -999 -999
2007-01-24 14:35 51°19.39 2°46.571 -999 -999 -999 -999 -999
2007-01-24 14:36 51°19.191 2°46.424 -999 -999 -999 -999 -999
2007-01-24 14:37 51°18.993 2°46.281 -999 -999 -999 -999 -999
2007-01-24 14:38 51°18.796 2°46.132 -999 -999 -999 -999 -999
2007-01-24 14:39 51°18.6 2°45.991 -999 -999 -999 -999 -999
2007-01-24 14:40 51°18.4 2°45.85 -999 -999 -999 -999 -999
2007-01-24 14:41 51°18.206 2°45.7 -999 -999 -999 -999 -999
2007-01-24 14:42 51°18.015 2°45.546 -999 -999 -999 -999 -999
2007-01-24 14:43 51°17.82 2°45.396 -999 -999 -999 -999 -999
2007-01-24 14:44 51°17.627 2°45.239 -999 -999 -999 -999 -999
2007-01-24 14:45 51°17.436 2°45.089 -999 -999 -999 -999 -999
2007-01-24 14:46 51°17.247 2°44.928 -999 -999 -999 -999 -999
2007-01-24 14:47 51°17.057 2°44.766 -999 -999 -999 -999 -999
2007-01-24 14:48 51°16.869 2°44.6 -999 -999 -999 -999 -999
2007-01-24 14:49 51°16.682 2°44.439 -999 -999 -999 -999 -999
2007-01-24 14:50 51°16.494 2°44.28 -999 -999 -999 -999 -999
2007-01-24 14:51 51°16.305 2°44.119 -999 -999 -999 -999 -999
2007-01-24 14:52 51°16.102 2°44.017 -999 -999 -999 -999 -999
2007-01-24 14:53 51°15.883 2°44.049 -999 -999 -999 -999 -999
2007-01-24 14:54 51°15.7 2°44.266 -999 -999 -999 -999 -999
2007-01-24 14:55 51°15.603 2°44.619 -999 -999 -999 -999 -999
2007-01-24 14:56 51°15.586 2°45.008 -999 -999 -999 -999 -999
2007-01-24 14:57 51°15.647 2°45.394 -999 -999 -999 -999 -999
2007-01-24 14:58 51°15.689 2°45.785 -999 -999 -999 -999 -999
2007-01-24 14:59 51°15.714 2°46.187 -999 -999 -999 -999 -999
2007-01-24 15:00 51°15.709 2°46.59 -999 -999 -999 -999 -999
2007-01-24 15:01 51°15.692 2°46.998 -999 -999 -999 -999 -999
2007-01-24 15:02 51°15.679 2°47.409 -999 -999 -999 -999 -999
2007-01-24 15:03 51°15.663 2°47.811 -999 -999 -999 -999 -999
2007-01-24 15:04 51°15.647 2°48.214 -999 -999 -999 -999 -999
2007-01-24 15:05 51°15.63 2°48.619 -999 -999 -999 -999 -999
2007-01-24 15:06 51°15.613 2°49.02 -999 -999 -999 -999 -999
2007-01-24 15:07 51°15.602 2°49.419 -999 -999 -999 -999 -999
2007-01-24 15:08 51°15.589 2°49.819 -999 -999 -999 -999 -999
2007-01-24 15:09 51°15.582 2°50.217 -999 -999 -999 -999 -999
2007-01-24 15:10 51°15.574 2°50.548 -999 -999 -999 -999 -999
2007-01-24 15:11 51°15.557 2°50.902 -999 -999 -999 -999 -999
2007-01-24 15:12 51°15.481 2°51.244 -999 -999 -999 -999 -999
2007-01-24 15:13 51°15.39 2°51.575 -999 -999 -999 -999 -999
2007-01-24 15:14 51°15.296 2°51.9 -999 -999 -999 -999 -999
2007-01-24 15:15 51°15.196 2°52.241 -999 -999 -999 -999 -999
2007-01-24 15:16 51°15.094 2°52.59 -999 -999 -999 -999 -999
2007-01-24 15:17 51°14.993 2°52.944 -999 -999 -999 -999 -999
2007-01-24 15:18 51°14.888 2°53.286 -999 -999 -999 -999 -999
2007-01-24 15:19 51°14.817 2°53.567 -999 -999 -999 -999 -999
2007-01-24 15:20 51°14.804 2°53.84 -999 -999 -999 -999 -999
2007-01-24 15:21 51°14.83 2°54.031 -999 -999 -999 -999 -999
2007-01-24 15:22 51°14.862 2°54.154 -999 -999 -999 -999 -999
2007-01-24 15:23 51°14.853 2°54.274 -999 -999 -999 -999 -999
2007-01-24 15:24 51°14.766 2°54.505 -999 -999 -999 -999 -999
2007-01-24 15:25 51°14.609 2°54.766 -999 -999 -999 -999 -999
2007-01-24 15:26 51°14.432 2°54.999 -999 -999 -999 -999 -999
2007-01-24 15:27 51°14.277 2°55.239 -999 -999 -999 -999 -999
2007-01-24 15:28 51°14.16 2°55.377 -999 -999 -999 -999 -999
2007-01-24 15:29 51°14.069 2°55.451 -999 -999 -999 -999 -999
2007-01-24 15:30 51°13.985 2°55.514 -999 -999 -999 -999 -999
2007-01-24 15:31 51°13.909 2°55.572 -999 -999 -999 -999 -999
2007-01-24 15:32 51°13.828 2°55.632 -999 -999 -999 -999 -999
2007-01-24 15:33 51°13.752 2°55.716 -999 -999 -999 -999 -999
2007-01-24 15:34 51°13.696 2°55.81 -999 -999 -999 -999 -999
2007-01-24 15:35 51°13.65 2°55.911 -999 -999 -999 -999 -999
2007-01-24 15:36 51°13.615 2°56.006 -999 -999 -999 -999 -999
2007-01-24 15:37 51°13.602 2°56.076 -999 -999 -999 -999 -999
2007-01-24 15:38 51°13.597 2°56.092 -999 -999 -999 -999 -999
2007-01-24 15:39 51°13.598 2°56.092 -999 -999 -999 -999 -999
2007-01-24 15:40 51°13.598 2°56.094 -999 -999 -999 -999 -999